ONEWEB-0188, 48231

Orbit data source: Space-Track

ONEWEB-0188, 48231 is a payload satellite owned by One Web (NAA) (UK) in LEO that was launched on Sun, 25 Apr 2021 UTC via a SOYUZ-2-1B launch vehicle from the Vostochny Cosmodrome (VOSTO). Payload-class satellites include a variety of spacecraft equipped with specific instruments for various scientific and technological missions. These include communications satellites like Starlink; space stations such as the ISS; scientific satellites like the Hubble; Earth observation satellites from companies like Planet Labs, Umbra, and HawkEye 360; GPS; miniature CubeSats for education and research; and military/defense satellites.

Loading next visibility...
Identifier
48231, 2021-031X
Orbit
LEO
Country
Flag of UKUK
Related business
Manufacturer
One Web
Mission
Operational Commercial Communications
Bus & Motor
ARROW, Unknown motor
Mass
148 kg wet, ~140 kg dry
Launch date (UTC)
2021-04-25 (5 years ago)
Launch vehicle
SOYUZ-2-1B
Launch site
Vostochny Cosmodrome (VOSTO)
Object type
Payload
Rocket body
Debris
Shape & HBR
Trap Box + 2 Pan, 6.7 m
Radar Cross Section
3.464 m², Large (>1 m²)

Expand to show TLE details & history
Last TLE update: 16 hours ago

TLE from 16 hours ago
0 ONEWEB-0188
1 48231U 21031X   26094.07038232 -.00000148  00000-0 -43259-3 0  9992
2 48231  87.8931 304.5246 0001643  85.3476 274.7841 13.14504823238408
Epoch: 2026-04-04T01:41Z
TLE epoch observation values (Epoch: 2026-04-04T01:41:21.032Z)
Latitude
-0.00005°
Longitude
86.79153°
Altitude
1,208.573 km
Speed
7.25 km/s
True Right ascension
20h 18m 05s
True Declination
0° 00' 00"
Sunlit
Object was in daylight at epoch
Visualization orbit readout
Latitude
Unknown
Longitude
Unknown
Altitude
Unknown
Speed
Unknown
Apparent Right ascension
Unknown
Apparent Declination
Unknown
Sunlit
N/A
Visualization observer readout
Local Sidereal Time
00:00:36
Azimuth
Unknown
Elevation
Unknown
Doppler factor
Unknown
Orbital elements
Apogee altitude
1,204.142 km
Perigee altitude
1,201.651 km
Semi-major axis
7,581.033 km
Eccentricity
0.00016
Inclination
87.8931°
RAAN
304.5246°
Arg. of periapsis
85.3476°
True anomaly
274.76534°
Mean anomaly
274.7841°
Eccentric anomaly
274.77472°
Mean motion
3.28814 °/min
Orbital period
109.48 mins
BSTAR
-0.00043259
Loading maneuver chart data...
Computing Atmospheric mass density...
Loading historical data...
Loading historical data...
Loading historical data...
Loading historical data...
Loading historical data...
Loading historical data...
Loading historical data...

Documentation

Showing up to 5 results
|